| time (UTC) | temp C | wind direction | speed KPH | gust KPH | rain 1hr cm | rain 24hr cm | rain mn cm | humidity % | barometer mb |
| 20260505112026 | 7 | 33 | 0.0 | 0.0 | 0.00 | 0.00 | 0.00 | 74 | 923.7 |
| 20260505111520 | 7 | 32 | 1.6 | 3.2 | 0.00 | 0.00 | 0.00 | 74 | 923.8 |
| 20260505111017 | 7 | 351 | 4.8 | 8.0 | 0.00 | 0.00 | 0.00 | 74 | 923.7 |
| 20260505110513 | 7 | 2 | 4.8 | 8.0 | 0.00 | 0.00 | 0.00 | 74 | 923.8 |
| 20260505101945 | 8 | 1 | 6.4 | 12.9 | 0.00 | 0.00 | 0.00 | 76 | 923.5 |
| 20260505101443 | 8 | 354 | 0.0 | 3.2 | 0.00 | 0.00 | 0.00 | 75 | 923.5 |
| 20260505100939 | 8 | 6 | 0.0 | 0.0 | 0.00 | 0.00 | 0.00 | 75 | 923.5 |
| 20260505100438 | 8 | 340 | 0.0 | 4.8 | 0.00 | 0.00 | 0.00 | 74 | 923.5 |
| 20260505095933 | 8 | 272 | 4.8 | 9.7 | 0.00 | 0.00 | 0.00 | 73 | 923.3 |
| 20260505095430 | 8 | 257 | 0.0 | 0.0 | 0.00 | 0.00 | 0.00 | 71 | 923.3 |
| 20260505094926 | 9 | 258 | 0.0 | 4.8 | 0.00 | 0.00 | 0.00 | 69 | 923.5 |
| 20260505094423 | 9 | 299 | 4.8 | 9.7 | 0.00 | 0.00 | 0.00 | 68 | 923.3 |
| 20260505093919 | 9 | 226 | 8.0 | 9.7 | 0.00 | 0.00 | 0.00 | 66 | 923.5 |
| 20260505093416 | 9 | 254 | 8.0 | 9.7 | 0.00 | 0.00 | 0.00 | 65 | 923.2 |
| 20260505092913 | 9 | 254 | 6.4 | 8.0 | 0.00 | 0.00 | 0.00 | 66 | 923.6 |
| 20260505092411 | 9 | 214 | 1.6 | 8.0 | 0.00 | 0.00 | 0.00 | 67 | 923.2 |
| 20260505091908 | 9 | 189 | 3.2 | 9.7 | 0.00 | 0.00 | 0.00 | 67 | 923.6 |
| 20260505091406 | 9 | 202 | 6.4 | 9.7 | 0.00 | 0.00 | 0.00 | 67 | 923.6 |
| 20260505090904 | 10 | 216 | 4.8 | 12.9 | 0.00 | 0.00 | 0.00 | 66 | 923.3 |
| 20260505090402 | 10 | 236 | 9.7 | 16.1 | 0.00 | 0.00 | 0.00 | 65 | 923.6 |
| 20260505085859 | 10 | 185 | 6.4 | 12.9 | 0.00 | 0.00 | 0.00 | 64 | 923.6 |
| 20260505085357 | 10 | 192 | 8.0 | 12.9 | 0.00 | 0.00 | 0.00 | 63 | 923.5 |
| 20260505084854 | 10 | 195 | 4.8 | 11.3 | 0.00 | 0.00 | 0.00 | 63 | 923.5 |
| 20260505084352 | 10 | 139 | 4.8 | 12.9 | 0.00 | 0.00 | 0.00 | 63 | 923.6 |
| 20260505083850 | 10 | 204 | 8.0 | 12.9 | 0.00 | 0.00 | 0.00 | 62 | 923.3 |
| 20260505083347 | 10 | 200 | 12.9 | 17.7 | 0.00 | 0.00 | 0.00 | 62 | 923.3 |
| 20260505082843 | 10 | 213 | 4.8 | 9.7 | 0.00 | 0.00 | 0.00 | 62 | 923.5 |
| 20260505082339 | 10 | 189 | 0.0 | 9.7 | 0.00 | 0.00 | 0.00 | 61 | 923.3 |
| 20260505081836 | 10 | 203 | 11.3 | 12.9 | 0.00 | 0.00 | 0.00 | 60 | 923.5 |
| 20260505081333 | 10 | 193 | 8.0 | 11.3 | 0.00 | 0.00 | 0.00 | 59 | 923.6 |
| 20260505080830 | 10 | 169 | 3.2 | 11.3 | 0.00 | 0.00 | 0.00 | 58 | 923.7 |
| 20260505080325 | 10 | 182 | 8.0 | 9.7 | 0.00 | 0.00 | 0.00 | 59 | 923.3 |
| 20260505075821 | 10 | 97 | 0.0 | 0.0 | 0.00 | 0.00 | 0.00 | 59 | 923.8 |
| 20260505075318 | 10 | 37 | 0.0 | 0.0 | 0.00 | 0.00 | 0.00 | 60 | 923.5 |
| 20260505074816 | 10 | 108 | 0.0 | 0.0 | 0.00 | 0.00 | 0.00 | 60 | 923.6 |
| 20260505074313 | 10 | 159 | 0.0 | 0.0 | 0.00 | 0.00 | 0.00 | 60 | 923.5 |
| 20260505073810 | 10 | 126 | 0.0 | 0.0 | 0.00 | 0.00 | 0.00 | 61 | 923.5 |
| 20260505073308 | 10 | 125 | 0.0 | 0.0 | 0.00 | 0.00 | 0.00 | 60 | 923.5 |
| 20260505072805 | 10 | 223 | 0.0 | 3.2 | 0.00 | 0.00 | 0.00 | 62 | 923.2 |
| 20260505072301 | 9 | 51 | 0.0 | 1.6 | 0.00 | 0.00 | 0.00 | 62 | 923.3 |
| 20260505071756 | 8 | 85 | 0.0 | 8.0 | 0.00 | 0.00 | 0.00 | 65 | 923.6 |
| 20260505071253 | 7 | 130 | 0.0 | 1.6 | 0.00 | 0.00 | 0.00 | 69 | 923.3 |
| 20260505070751 | 7 | 15 | 1.6 | 3.2 | 0.00 | 0.00 | 0.00 | 70 | 923.6 |
| 20260505070247 | 8 | 47 | 11.3 | 14.5 | 0.00 | 0.00 | 0.00 | 68 | 923.5 |
| 20260505065743 | 8 | 59 | 0.0 | 0.0 | 0.00 | 0.00 | 0.00 | 65 | 923.0 |
| 20260505065240 | 9 | 64 | 0.0 | 0.0 | 0.00 | 0.00 | 0.00 | 63 | 923.2 |
| 20260505064737 | 9 | 103 | 0.0 | 0.0 | 0.00 | 0.00 | 0.00 | 61 | 923.3 |
| 20260505064234 | 9 | 188 | 0.0 | 0.0 | 0.00 | 0.00 | 0.00 | 61 | 923.3 |
| 20260505063732 | 9 | 83 | 0.0 | 0.0 | 0.00 | 0.00 | 0.00 | 62 | 923.6 |
| 20260505063228 | 9 | 104 | 0.0 | 0.0 | 0.00 | 0.00 | 0.00 | 62 | 923.0 |
| 20260505062724 | 9 | 69 | 0.0 | 0.0 | 0.00 | 0.00 | 0.00 | 64 | 923.1 |
| 20260505062222 | 8 | 71 | 0.0 | 0.0 | 0.00 | 0.00 | 0.00 | 64 | 923.1 |
| 20260505061719 | 8 | 74 | 0.0 | 0.0 | 0.00 | 0.00 | 0.00 | 66 | 923.3 |
| 20260505061217 | 8 | 80 | 0.0 | 0.0 | 0.00 | 0.00 | 0.00 | 66 | 923.2 |
| 20260505060714 | 8 | 69 | 0.0 | 0.0 | 0.00 | 0.00 | 0.00 | 66 | 923.1 |
| 20260505060211 | 8 | 54 | 0.0 | 0.0 | 0.00 | 0.00 | 0.00 | 68 | 923.2 |
| 20260505055706 | 8 | 50 | 0.0 | 1.6 | 0.00 | 0.00 | 0.00 | 68 | 923.0 |
| 20260505055203 | 8 | 70 | 0.0 | 0.0 | 0.00 | 0.00 | 0.00 | 67 | 923.0 |
| 20260505054700 | 8 | 60 | 1.6 | 1.6 | 0.00 | 0.00 | 0.00 | 66 | 923.1 |
| 20260505054158 | 9 | 47 | 0.0 | 3.2 | 0.00 | 0.00 | 0.00 | 64 | 923.1 |
| 20260505053656 | 9 | 52 | 0.0 | 1.6 | 0.00 | 0.00 | 0.00 | 65 | 923.2 |
| 20260505053152 | 10 | 47 | 0.0 | 0.0 | 0.00 | 0.00 | 0.00 | 63 | 923.1 |
| 20260505052649 | 10 | 30 | 0.0 | 0.0 | 0.00 | 0.00 | 0.00 | 60 | 923.3 |
| 20260505052146 | 10 | 30 | 0.0 | 0.0 | 0.00 | 0.00 | 0.00 | 62 | 923.3 |
| 20260505051643 | 10 | 79 | 0.0 | 0.0 | 0.00 | 0.00 | 0.00 | 64 | 923.6 |
| 20260505051141 | 10 | 108 | 0.0 | 1.6 | 0.00 | 0.00 | 0.00 | 63 | 923.5 |
| 20260505050639 | 10 | 94 | 0.0 | 0.0 | 0.00 | 0.00 | 0.00 | 63 | 923.6 |
| 20260505050137 | 10 | 81 | 0.0 | 3.2 | 0.00 | 0.00 | 0.00 | 62 | 923.5 |
| 20260505041606 | 10 | 95 | 0.0 | 0.0 | 0.00 | 0.00 | 0.00 | 58 | 923.8 |
| 20260505041104 | 10 | 137 | 0.0 | 0.0 | 0.00 | 0.00 | 0.00 | 61 | 923.8 |
| 20260505040601 | 10 | 72 | 0.0 | 0.0 | 0.00 | 0.00 | 0.00 | 61 | 923.6 |
| 20260505040058 | 10 | 49 | 0.0 | 0.0 | 0.00 | 0.00 | 0.00 | 62 | 923.6 |
| 20260505035554 | 10 | 55 | 0.0 | 3.2 | 0.00 | 0.00 | 0.00 | 60 | 923.7 |
| 20260505035051 | 10 | 54 | 0.0 | 1.6 | 0.00 | 0.00 | 0.00 | 62 | 923.3 |
| 20260505034547 | 11 | 71 | 0.0 | 0.0 | 0.00 | 0.00 | 0.00 | 54 | 923.2 |
| 20260505034044 | 11 | 78 | 0.0 | 0.0 | 0.00 | 0.00 | 0.00 | 55 | 923.2 |
| 20260505033541 | 11 | 78 | 0.0 | 0.0 | 0.00 | 0.00 | 0.00 | 56 | 923.0 |
| 20260505033040 | 11 | 89 | 0.0 | 0.0 | 0.00 | 0.00 | 0.00 | 57 | 923.0 |
| 20260505032537 | 11 | 68 | 0.0 | 0.0 | 0.00 | 0.00 | 0.00 | 57 | 923.2 |
| 20260505032033 | 12 | 62 | 1.6 | 1.6 | 0.00 | 0.00 | 0.00 | 58 | 922.9 |
| 20260505031531 | 12 | 20 | 0.0 | 0.0 | 0.00 | 0.00 | 0.00 | 52 | 923.1 |
| 20260505031027 | 12 | 20 | 0.0 | 0.0 | 0.00 | 0.00 | 0.00 | 52 | 922.9 |
| 20260505030524 | 11 | 20 | 0.0 | 0.0 | 0.00 | 0.00 | 0.00 | 53 | 922.9 |
| 20260505030020 | 12 | 19 | 0.0 | 0.0 | 0.00 | 0.00 | 0.00 | 55 | 922.9 |
| 20260505025516 | 12 | 18 | 0.0 | 0.0 | 0.00 | 0.00 | 0.00 | 50 | 922.9 |
| 20260505025015 | 12 | 18 | 0.0 | 0.0 | 0.00 | 0.00 | 0.00 | 49 | 923.0 |
| 20260505024511 | 12 | 10 | 0.0 | 0.0 | 0.00 | 0.00 | 0.00 | 49 | 922.7 |
| 20260505024009 | 12 | 16 | 0.0 | 0.0 | 0.00 | 0.00 | 0.00 | 49 | 922.7 |
| 20260505023505 | 12 | 342 | 0.0 | 0.0 | 0.00 | 0.00 | 0.00 | 49 | 922.5 |
| 20260505023003 | 12 | 36 | 0.0 | 0.0 | 0.00 | 0.00 | 0.00 | 49 | 922.5 |
| 20260505022500 | 12 | 7 | 0.0 | 0.0 | 0.00 | 0.00 | 0.00 | 50 | 922.7 |
| 20260505021958 | 13 | 8 | 0.0 | 3.2 | 0.00 | 0.00 | 0.00 | 50 | 922.5 |
| 20260505021454 | 13 | 310 | 3.2 | 3.2 | 0.00 | 0.00 | 0.00 | 49 | 922.5 |
| 20260505020949 | 13 | 288 | 0.0 | 8.0 | 0.00 | 0.00 | 0.00 | 49 | 922.8 |
| 20260505020445 | 13 | 355 | 0.0 | 8.0 | 0.00 | 0.00 | 0.00 | 48 | 922.4 |
| 20260505015942 | 14 | 350 | 0.0 | 0.0 | 0.00 | 0.00 | 0.00 | 47 | 922.3 |
| 20260505015439 | 13 | 317 | 0.0 | 8.0 | 0.00 | 0.00 | 0.00 | 47 | 922.5 |
| 20260505014937 | 13 | 359 | 0.0 | 4.8 | 0.00 | 0.00 | 0.00 | 47 | 922.3 |
| 20260505014433 | 14 | 334 | 0.0 | 3.2 | 0.00 | 0.00 | 0.00 | 47 | 922.4 |
| 20260505013930 | 14 | 283 | 4.8 | 9.7 | 0.00 | 0.00 | 0.00 | 47 | 922.7 |
| 20260505013427 | 14 | 256 | 8.0 | 9.7 | 0.00 | 0.00 | 0.00 | 46 | 922.5 |
| 20260505012925 | 14 | 271 | 9.7 | 12.9 | 0.00 | 0.00 | 0.00 | 46 | 922.1 |
| 20260505012423 | 15 | 272 | 14.5 | 17.7 | 0.00 | 0.00 | 0.00 | 45 | 922.5 |
| 20260505011919 | 15 | 194 | 8.0 | 11.3 | 0.00 | 0.00 | 0.00 | 45 | 922.5 |
| 20260505011416 | 15 | 263 | 11.3 | 16.1 | 0.00 | 0.00 | 0.00 | 45 | 922.7 |
| 20260505010912 | 15 | 207 | 8.0 | 20.9 | 0.00 | 0.00 | 0.00 | 45 | 923.0 |
| 20260505010408 | 15 | 224 | 14.5 | 22.5 | 0.00 | 0.00 | 0.00 | 44 | 923.0 |
| 20260505005904 | 15 | 240 | 14.5 | 22.5 | 0.00 | 0.00 | 0.00 | 43 | 923.2 |
| 20260505005401 | 16 | 210 | 11.3 | 32.2 | 0.00 | 0.00 | 0.00 | 42 | 923.2 |
| 20260505004859 | 16 | 275 | 9.7 | 29.0 | 0.00 | 0.00 | 0.00 | 41 | 923.1 |
| 20260505004355 | 16 | 246 | 9.7 | 25.7 | 0.00 | 0.00 | 0.00 | 41 | 923.1 |
| 20260505003852 | 16 | 209 | 12.9 | 25.7 | 0.00 | 0.00 | 0.00 | 39 | 922.9 |
| 20260505003349 | 16 | 260 | 16.1 | 29.0 | 0.00 | 0.00 | 0.00 | 39 | 923.0 |
| 20260505002845 | 16 | 241 | 11.3 | 33.8 | 0.00 | 0.00 | 0.00 | 40 | 923.0 |
| 20260505002342 | 17 | 247 | 22.5 | 32.2 | 0.00 | 0.00 | 0.00 | 38 | 922.8 |
| 20260505001841 | 17 | 261 | 11.3 | 32.2 | 0.00 | 0.00 | 0.00 | 38 | 922.7 |
| 20260505001337 | 17 | 223 | 9.7 | 29.0 | 0.00 | 0.00 | 0.00 | 36 | 922.7 |
| 20260505000835 | 18 | 256 | 17.7 | 33.8 | 0.00 | 0.00 | 0.00 | 36 | 922.5 |
| 20260505000332 | 19 | 264 | 8.0 | 16.1 | 0.00 | 0.00 | 0.00 | 29 | 922.7 |
| 20260504235829 | 18 | 297 | 8.0 | 20.9 | 0.00 | 0.00 | 0.00 | 30 | 922.5 |
| 20260504235326 | 18 | 263 | 12.9 | 24.1 | 0.00 | 0.00 | 0.00 | 30 | 922.4 |
| 20260504234822 | 18 | 316 | 14.5 | 17.7 | 0.00 | 0.00 | 0.00 | 28 | 922.7 |
| 20260504234320 | 18 | 136 | 9.7 | 17.7 | 0.00 | 0.00 | 0.00 | 28 | 922.7 |
| 20260504233816 | 19 | 217 | 6.4 | 16.1 | 0.00 | 0.00 | 0.00 | 28 | 922.5 |
| 20260504233312 | 19 | 265 | 8.0 | 17.7 | 0.00 | 0.00 | 0.00 | 28 | 922.5 |
| 20260504232809 | 18 | 257 | 11.3 | 16.1 | 0.00 | 0.00 | 0.00 | 27 | 922.4 |
| 20260504232306 | 19 | 129 | 0.0 | 8.0 | 0.00 | 0.00 | 0.00 | 27 | 922.5 |
| 20260504231803 | 20 | 0 | 1.6 | 14.5 | 0.00 | 0.00 | 0.00 | 27 | 922.7 |
| 20260504231259 | 20 | 299 | 1.6 | 9.7 | 0.00 | 0.00 | 0.00 | 27 | 922.9 |
| 20260504230755 | 20 | 294 | 3.2 | 17.7 | 0.00 | 0.00 | 0.00 | 26 | 922.8 |
| 20260504230254 | 20 | 289 | 3.2 | 12.9 | 0.00 | 0.00 | 0.00 | 27 | 922.5 |
| 20260504225752 | 20 | 311 | 0.0 | 1.6 | 0.00 | 0.00 | 0.00 | 25 | 922.7 |
| 20260504225248 | 18 | 317 | 0.0 | 16.1 | 0.00 | 0.00 | 0.00 | 27 | 922.7 |
| 20260504224745 | 18 | 352 | 0.0 | 4.8 | 0.00 | 0.00 | 0.00 | 26 | 922.8 |
| 20260504224243 | 18 | 51 | 0.0 | 14.5 | 0.00 | 0.00 | 0.00 | 27 | 922.9 |
| 20260504223739 | 18 | 226 | 11.3 | 16.1 | 0.00 | 0.00 | 0.00 | 27 | 922.9 |
| 20260504223235 | 18 | 265 | 17.7 | 20.9 | 0.00 | 0.00 | 0.00 | 28 | 922.8 |
| 20260504222732 | 20 | 309 | 11.3 | 17.7 | 0.00 | 0.00 | 0.00 | 27 | 922.8 |
| 20260504222228 | 20 | 203 | 11.3 | 17.7 | 0.00 | 0.00 | 0.00 | 27 | 923.0 |
| 20260504221726 | 20 | 129 | 3.2 | 17.7 | 0.00 | 0.00 | 0.00 | 26 | 922.9 |
| 20260504221223 | 19 | 356 | 9.7 | 12.9 | 0.00 | 0.00 | 0.00 | 26 | 923.0 |
| 20260504220719 | 19 | 358 | 11.3 | 22.5 | 0.00 | 0.00 | 0.00 | 26 | 923.0 |
| 20260504220217 | 20 | 294 | 12.9 | 22.5 | 0.00 | 0.00 | 0.00 | 27 | 923.2 |
| 20260504215714 | 18 | 269 | 4.8 | 22.5 | 0.00 | 0.00 | 0.00 | 26 | 923.2 |
| 20260504215211 | 19 | 315 | 4.8 | 12.9 | 0.00 | 0.00 | 0.00 | 26 | 923.1 |
| 20260504214706 | 19 | 315 | 8.0 | 20.9 | 0.00 | 0.00 | 0.00 | 27 | 923.5 |
| 20260504214203 | 18 | 341 | 1.6 | 17.7 | 0.00 | 0.00 | 0.00 | 29 | 923.1 |
| 20260504213700 | 18 | 318 | 4.8 | 16.1 | 0.00 | 0.00 | 0.00 | 28 | 923.1 |
| 20260504213156 | 18 | 282 | 8.0 | 17.7 | 0.00 | 0.00 | 0.00 | 31 | 923.1 |
| 20260504212653 | 19 | 206 | 19.3 | 25.7 | 0.00 | 0.00 | 0.00 | 30 | 923.5 |
| 20260504212150 | 18 | 265 | 12.9 | 22.5 | 0.00 | 0.00 | 0.00 | 29 | 923.7 |
| 20260504211647 | 18 | 290 | 14.5 | 29.0 | 0.00 | 0.00 | 0.00 | 28 | 923.7 |
| 20260504211143 | 18 | 281 | 20.9 | 48.3 | 0.00 | 0.00 | 0.00 | 29 | 923.7 |
| 20260504210641 | 20 | 295 | 16.1 | 25.7 | 0.00 | 0.00 | 0.00 | 27 | 923.5 |
| 20260504210137 | 20 | 217 | 8.0 | 14.5 | 0.00 | 0.00 | 0.00 | 27 | 923.6 |
| 20260504205635 | 18 | 288 | 1.6 | 11.3 | 0.00 | 0.00 | 0.00 | 27 | 923.7 |
| 20260504205132 | 18 | 323 | 14.5 | 17.7 | 0.00 | 0.00 | 0.00 | 27 | 923.5 |
| 20260504204631 | 18 | 351 | 9.7 | 22.5 | 0.00 | 0.00 | 0.00 | 27 | 923.7 |
| 20260504204129 | 18 | 327 | 3.2 | 17.7 | 0.00 | 0.00 | 0.00 | 28 | 923.7 |
| 20260504203628 | 18 | 326 | 8.0 | 22.5 | 0.00 | 0.00 | 0.00 | 28 | 923.9 |
| 20260504203125 | 18 | 303 | 11.3 | 24.1 | 0.00 | 0.00 | 0.00 | 27 | 923.8 |
| 20260504202625 | 19 | 30 | 11.3 | 14.5 | 0.00 | 0.00 | 0.00 | 25 | 924.0 |
| 20260504202122 | 18 | 61 | 1.6 | 9.7 | 0.00 | 0.00 | 0.00 | 27 | 924.0 |
| 20260504201619 | 17 | 255 | 4.8 | 9.7 | 0.00 | 0.00 | 0.00 | 29 | 924.3 |
| 20260504201117 | 17 | 4 | 3.2 | 16.1 | 0.00 | 0.00 | 0.00 | 29 | 923.9 |
| 20260504200614 | 17 | 358 | 3.2 | 12.9 | 0.00 | 0.00 | 0.00 | 29 | 924.1 |
| 20260504200110 | 17 | 327 | 9.7 | 16.1 | 0.00 | 0.00 | 0.00 | 30 | 924.0 |
| 20260504195606 | 17 | 294 | 11.3 | 22.5 | 0.00 | 0.00 | 0.00 | 30 | 923.9 |
| 20260504195103 | 17 | 345 | 11.3 | 24.1 | 0.00 | 0.00 | 0.00 | 29 | 923.9 |
| 20260504194600 | 18 | 338 | 16.1 | 32.2 | 0.00 | 0.00 | 0.00 | 29 | 923.9 |
| 20260504194055 | 18 | 342 | 9.7 | 11.3 | 0.00 | 0.00 | 0.00 | 26 | 924.1 |
| 20260504193552 | 18 | 268 | 1.6 | 4.8 | 0.00 | 0.00 | 0.00 | 25 | 924.1 |
| 20260504193050 | 18 | 39 | 0.0 | 0.0 | 0.00 | 0.00 | 0.00 | 26 | 924.4 |
| 20260504192548 | 18 | 34 | 8.0 | 12.9 | 0.00 | 0.00 | 0.00 | 27 | 924.4 |
| 20260504192046 | 18 | 32 | 0.0 | 8.0 | 0.00 | 0.00 | 0.00 | 28 | 924.4 |
| 20260504191544 | 18 | 67 | 11.3 | 16.1 | 0.00 | 0.00 | 0.00 | 27 | 924.7 |
| 20260504191040 | 18 | 84 | 4.8 | 17.7 | 0.00 | 0.00 | 0.00 | 28 | 924.6 |
| 20260504190536 | 18 | 73 | 6.4 | 17.7 | 0.00 | 0.00 | 0.00 | 33 | 924.7 |
| 20260504190032 | 17 | 34 | 19.3 | 25.7 | 0.00 | 0.00 | 0.00 | 33 | 924.7 |
| 20260504185530 | 17 | 22 | 11.3 | 20.9 | 0.00 | 0.00 | 0.00 | 35 | 924.7 |
| 20260504185026 | 17 | 42 | 8.0 | 22.5 | 0.00 | 0.00 | 0.00 | 35 | 924.8 |
| 20260504184521 | 16 | 56 | 11.3 | 27.4 | 0.00 | 0.00 | 0.00 | 38 | 924.7 |
| 20260504184017 | 15 | 42 | 20.9 | 25.7 | 0.00 | 0.00 | 0.00 | 35 | 924.7 |
| 20260504183514 | 15 | 34 | 19.3 | 27.4 | 0.00 | 0.00 | 0.00 | 36 | 924.6 |
| 20260504183013 | 15 | 40 | 8.0 | 24.1 | 0.00 | 0.00 | 0.00 | 35 | 924.7 |
| 20260504182509 | 15 | 33 | 14.5 | 24.1 | 0.00 | 0.00 | 0.00 | 33 | 924.7 |
| 20260504182006 | 15 | 6 | 11.3 | 27.4 | 0.00 | 0.00 | 0.00 | 33 | 924.6 |
| 20260504181503 | 17 | 1 | 14.5 | 22.5 | 0.00 | 0.00 | 0.00 | 31 | 924.6 |
| 20260504181002 | 17 | 324 | 6.4 | 12.9 | 0.00 | 0.00 | 0.00 | 29 | 924.5 |
| 20260504180500 | 18 | 349 | 14.5 | 17.7 | 0.00 | 0.00 | 0.00 | 28 | 924.4 |
| 20260504175958 | 18 | 177 | 0.0 | 9.7 | 0.00 | 0.00 | 0.00 | 28 | 924.5 |
| 20260504175455 | 19 | 194 | 4.8 | 17.7 | 0.00 | 0.00 | 0.00 | 28 | 924.6 |
| 20260504174952 | 19 | 83 | 1.6 | 12.9 | 0.00 | 0.00 | 0.00 | 28 | 924.6 |
| 20260504174450 | 20 | 153 | 12.9 | 22.5 | 0.00 | 0.00 | 0.00 | 28 | 924.7 |
| 20260504173947 | 20 | 145 | 1.6 | 12.9 | 0.00 | 0.00 | 0.00 | 29 | 924.9 |
| 20260504173438 | 19 | 219 | 8.0 | 16.1 | 0.00 | 0.00 | 0.00 | 30 | 925.2 |
| 20260504172936 | 19 | 299 | 4.8 | 11.3 | 0.00 | 0.00 | 0.00 | 29 | 925.3 |
| 20260504172432 | 18 | 248 | 9.7 | 11.3 | 0.00 | 0.00 | 0.00 | 30 | 925.1 |
| 20260504171929 | 18 | 223 | 8.0 | 17.7 | 0.00 | 0.00 | 0.00 | 32 | 925.4 |
| 20260504171426 | 18 | 277 | 3.2 | 11.3 | 0.00 | 0.00 | 0.00 | 30 | 925.1 |
| 20260504170923 | 18 | 272 | 8.0 | 11.3 | 0.00 | 0.00 | 0.00 | 31 | 925.1 |
| 20260504170419 | 18 | 233 | 0.0 | 1.6 | 0.00 | 0.00 | 0.00 | 30 | 924.9 |
| 20260504160338 | 15 | 356 | 1.6 | 12.9 | 0.00 | 0.00 | 0.00 | 35 | 925.4 |
| 20260504150803 | 13 | 115 | 3.2 | 8.0 | 0.00 | 0.00 | 0.00 | 38 | 926.0 |
| 20260504150259 | 13 | 89 | 1.6 | 8.0 | 0.00 | 0.00 | 0.00 | 38 | 925.9 |
| 20260504141229 | 8 | 106 | 4.8 | 4.8 | 0.00 | 0.00 | 0.00 | 54 | 926.3 |
| 20260504140725 | 7 | 89 | 3.2 | 3.2 | 0.00 | 0.00 | 0.00 | 55 | 926.2 |
| 20260504140220 | 6 | 94 | 3.2 | 4.8 | 0.00 | 0.00 | 0.00 | 58 | 926.3 |
| 20260504130650 | 3 | 113 | 4.8 | 8.0 | 0.00 | 0.00 | 0.00 | 66 | 925.9 |
| 20260504130146 | 2 | 98 | 4.8 | 4.8 | 0.00 | 0.00 | 0.00 | 67 | 925.7 |
| 20260504120110 | 1 | 61 | 0.0 | 1.6 | 0.00 | 0.00 | 0.00 | 71 | 925.4 |